Zurück zum Katalog

YUXING-3 06

AktivMilitärSSO
NORAD 68199·PAYLOAD·🇨🇳 China

Gestartet Mar 16, 2026 von Jiuquan Satellite Launch Center

Loading…

Nächste Überflüge (nächste 24 Stunden)

TLE

AktuellSource: Space-Track

Epoche: Sep 14, 2026, 18:02 UTC

1 68199U 26052B   26257.75199330  .00003895  00000-0  23329-3 0  9994
2 68199  97.5260 331.1642 0012382   8.8718 351.2728 15.11529698 27578

Verfolge YUXING-3 06 in Echtzeit mit AllMySat

Download on the App Store